Location: Pel�-Koumbol�
(14.9505°N, 3.0798°W)
Time: 07:54:58
(UTC+00:00)

Okean O Rocket - Pass Details

Date: 17 February 2020
Orbit: 622 x 645 km, 98.2° (Epoch: 06 April)

Event Time Altitude Azimuth Distance (km) Brightness Sun altitude
Rises 05:05:13 0° 28° (NNE) 2,901 5.3 -22.5°
Reaches altitude 10° 05:07:39 10° 40° (NE) 1,991 4.6 -21.9°
Maximum altitude 05:11:23 28° 100° (E) 1,163 3.7 -21.0°
Drops below altitude 10° 05:15:06 10° 160° (SSE) 1,984 4.5 -20.1°
Sets 05:17:31 0° 171° (S) 2,888 5.2 -19.5°
